Powrót do katalogu

KUIPER-00297

AktywnyŁącznośćLEO
NORAD 68596·PAYLOAD·🇺🇸 United States

Wystrzelony Apr 4, 2026 z Cape Canaveral Space Force Station

Loading…

Następne Przeloty (najbliższe 24 godziny)

TLE

ŚwieżeSource: CelesTrak SupGP

Epoka: Sep 14, 2026, 21:46 UTC

1 68596C 26072Z   26257.90733796  .00000522  00000+0  68293-4 0  2574
2 68596  51.8984 151.3842 0001443  98.4299 234.5177 14.79930607    14

Śledź KUIPER-00297 w czasie rzeczywistym z AllMySat

Download on the App Store